Regional Weather Roundup
Issued by NWS

Home | Current Version | Previous Version | Graphics & Text | Print | Product List | Glossary On
Versions: 1 2 3 4 5 6 7 8 9 10 11 12 13 14 15 16 17 18 19 20 21 22 23 24 25 26 27 28 29 30 31 32 33 34 35 36 37 38 39 40 41 42 43 44 45 46 47 48 49
000
ASUS43 KDMX 221907
RWRIA

WEATHER ROUNDUP FOR IOWA
NATIONAL WEATHER SERVICE DES MOINES IA
200 PM CDT MON SEP 22 2014

NOTE: "FAIR" INDICATES FEW OR NO CLOUDS BELOW 12,000 FEET WITH NO
SIGNIFICANT WEATHER AND/OR OBSTRUCTIONS TO VISIBILITY.

* - THESE STATIONS ARE NOT NWS STATIONS...THUS NOT UNDER NWS
QUALITY CONTROL.  THEY ALSO DO NOT REPORT WEATHER SUCH
AS PRECIPITATION OR FOG.

IAZ001>003-012>014-020>022-031>034-043>046-222000-
   NORTHWEST IOWA

CITY           SKY/WX    TMP DP  RH WIND       PRES   REMARKS
CARROLL *      SUNNY     70  46  43 CALM      30.26F
CHEROKEE *     SUNNY     70  48  46 SW6       30.25F
DENISON *      SUNNY     70  48  46 S10       30.25F
LE MARS *      SUNNY     70  50  49 S9        30.25F
ORANGE CITY *  SUNNY     72  45  37 SW12      30.24F
SHELDON *      SUNNY     70  48  46 S8        30.23F
SIOUX CITY     MOSUNNY   72  49  44 SW10G20   30.25F
SPENCER        SUNNY     71  49  45 S12G20    30.25F
STORM LAKE *   SUNNY     68  52  56 W7G13     30.26F
$$

IAZ055>058-069>071-079>083-090>094-222000-
   SOUTHWEST IOWA

CITY           SKY/WX    TMP DP  RH WIND       PRES   REMARKS
ATLANTIC *     SUNNY     70  50  49 SW5G12    30.27F
AUDUBON *      SUNNY     70  46  43 S3        30.29F
CLARINDA *     SUNNY     72  48  43 CALM      30.29F
COUNCIL BLFS * SUNNY     70  52  52 SW9       30.27F
CRESTON *      SUNNY     70  52  52 VRB5      30.28F
HARLAN  *      SUNNY     70  50  49 VRB3G12   30.31F
LAMONI         SUNNY     69  51  52 VRB5      30.28F
RED OAK *      SUNNY     72  48  43 VRB5      30.27F
SHENANDOAH *   SUNNY     72  48  43 CALM      30.28F
$$

IAZ047>049-059>061-072>074-084-222000-
   CENTRAL IOWA

CITY           SKY/WX    TMP DP  RH WIND       PRES   REMARKS
AMES           SUNNY     69  51  52 SW6       30.27F
ANKENY *       SUNNY     68  50  52 CALM      30.28F
CHARITON *     HAZE      70  50  49 VRB6      30.28F VSB 3/4
DES MOINES     MOSUNNY   71  51  49 CALM      30.27F
GRINNELL*      SUNNY     68  46  45 W5        30.29F
KNOXVILLE *    SUNNY     70  50  49 VRB3      30.27F
MARSHALLTOWN   SUNNY     69  49  48 VRB7      30.27F
PELLA *        SUNNY     70  48  46 CALM      30.29F
PERRY *          N/A     72  48  43 CALM      30.27F
$$

IAZ004>006-015-016-023>025-035-036-222000-
   NORTH CENTRAL IOWA

CITY           SKY/WX    TMP DP  RH WIND       PRES   REMARKS
ALGONA *       SUNNY     70  50  49 VRB7      30.26F
CLARION *        N/A     70  48  46 VRB6      30.27F
ESTHERVILLE    SUNNY     68  47  46 S5        30.25F
FORT DODGE *   SUNNY     70  48  46 CALM      30.27F
MASON CITY     SUNNY     68  50  52 SW8       30.27F
FOREST CITY *    N/A     68  50  52 MISG        N/A
IOWA FALLS *     N/A     70  46  43 CALM      30.27F
$$

IAZ007>011-017>019-026>030-037>042-050>054-066-222000-
   NORTHEAST IOWA

CITY           SKY/WX    TMP DP  RH WIND       PRES   REMARKS
CEDAR RAPIDS   SUNNY     68  48  48 SW7       30.27F
CHARLES CITY * SUNNY     70  48  46 W9        30.27F
CLINTON *      SUNNY     66  43  42 CALM      30.31F
DECORAH *      SUNNY     66  48  52 VRB6G14   30.25F
DUBUQUE        SUNNY     67  45  45 W10       30.28F
MONTICELLO *   SUNNY     68  45  42 S7        30.27F
OELWEIN *      SUNNY     68  46  45 SW8       30.27F
WATERLOO       SUNNY     70  48  45 W8        30.26F
$$

IAZ064-065-067-068-078-222000-
   EAST CENTRAL IOWA

CITY           SKY/WX    TMP DP  RH WIND       PRES   REMARKS
DAVENPORT      SUNNY     68  42  38 CALM      30.28F
IOWA CITY      SUNNY     68  49  50 VRB5      30.29F
MT. PLEASANT * SUNNY     70  41  35 CALM      30.28F
MUSCATINE *    SUNNY     70  45  40 VRB3      30.28F
QUAD CITIES    SUNNY     66  42  41 CALM      30.28F
$$

IAZ062-063-075>077-085>089-095>099-222000-
   SOUTHEAST IOWA

CITY           SKY/WX    TMP DP  RH WIND       PRES   REMARKS
BURLINGTON     SUNNY     69  45  41 NE3       30.28F
FAIRFIELD *    SUNNY     68  45  42 VRB5      30.28F
FORT MADISON * SUNNY     72  43  35 CALM      30.29F
KEOKUK *       SUNNY     68  46  45 NE3       30.28F
OSKALOOSA *      N/A     70  46  43 CALM      30.28F
CENTERVILLE *  SUNNY     68  46  45 NE5       30.30F
OTTUMWA        SUNNY     69  47  45 VRB3      30.27F
WASHINGTON *   SUNNY     70  45  40 VRB3      30.28F
$$

ABBREVIATIONS USED IN REMARKS
   TC - TEMPERATURES IN CELSIUS
  WCI - WIND CHILL INDEX
   HX - HEAT INDEX
  VSB - VISIBILITY
$$



USA.gov is the U.S. government's official web portal to all federal, state and local government web resources and services.